Jacksonville NAS, FL

6:22 PM EDT on August 17, 2017 (GMT -0400)
Jacksonville Naval Air Station

Weather History for KNIP - January, 2013

Change the Weather History Date:

Sunday, January 20, 2013

  Actual Average Record
Temperature  
Mean Temperature 63 °F -  
Max Temperature 71 °F 63 °F 82 °F (2017)
Min Temperature 55 °F 44 °F 35 °F (2016)
Degree Days  
Heating Degree Days 2    
Growing Degree Days 13 (Base 50)    
Moisture  
Dew Point 48 °F    
Average Humidity 66    
Maximum Humidity 90    
Minimum Humidity 34    
Precipitation  
Precipitation 0.00 in - - ()
Sea Level Pressure  
Sea Level Pressure 30.15 in    
Wind  
Wind Speed 8 mph (North)    
Max Wind Speed 14 mph    
Max Gust Speed -    
Visibility 10 miles    
Events      
Averages and records for this station are not official NWS values.
T = Trace of Precipitation, MM = Missing Value Source: NWS Daily Summary

Daily Weather History Graph

Daily Weather History Graph

Search for Another Location

Airport or City:

Trip Planner

Search our weather history database for the weather conditions in past years. The results will help you decide how hot, cold, wet, or windy it might be!

Date:

Astronomy

Jan. 20, 2013 Rise Set
Actual Time 7:22 AM EST 5:53 PM EST
Civil Twilight 6:56 AM EST 6:19 PM EST
Nautical Twilight 6:27 AM EST 6:48 PM EST
Astronomical Twilight 5:59 AM EST 7:16 PM EST
Moon 12:52 PM EST (1/20) 1:56 AM EST (1/20)
Length of Visible Light 11h 22m
Length of Day
10h 30m
Waxing Gibbous, 66% of the Moon is Illuminated
Jan 20
Waxing Gibbous
Jan 26
Full
Feb 3
Last Quarter
Feb 10
New
Feb 17
First Quarter

Hourly Weather History & Observations

Time (EST) Temp. Dew Point Humidity Pressure Visibility Wind Dir Wind Speed Gust Speed Precip Events Conditions
12:53 AM 55.0 °F 52.0 °F 89% 30.20 in 6.0 mi North 9.2 mph - N/A   Scattered Clouds
1:53 AM 55.0 °F 52.0 °F 89% 30.19 in 7.0 mi North 10.4 mph - N/A   Overcast
2:50 AM 55.4 °F 51.8 °F 88% 30.19 in 7.0 mi North 11.5 mph - N/A   Overcast
2:53 AM 55.0 °F 52.0 °F 89% 30.18 in 7.0 mi North 11.5 mph - N/A   Overcast
3:53 AM 55.9 °F 53.1 °F 90% 30.19 in 10.0 mi North 13.8 mph - N/A   Mostly Cloudy
4:53 AM 55.9 °F 53.1 °F 90% 30.19 in 10.0 mi North 10.4 mph - N/A   Mostly Cloudy
5:53 AM 55.9 °F 52.0 °F 87% 30.19 in 10.0 mi NNW 8.1 mph - N/A   Mostly Cloudy
6:53 AM 55.9 °F 51.1 °F 84% 30.19 in 10.0 mi North 6.9 mph - N/A   Mostly Cloudy
7:53 AM 57.0 °F 51.1 °F 81% 30.20 in 10.0 mi North 11.5 mph - N/A   Mostly Cloudy
8:53 AM 57.0 °F 48.9 °F 74% 30.22 in 10.0 mi NNW 9.2 mph - N/A   Mostly Cloudy
9:53 AM 59.0 °F 48.0 °F 67% 30.22 in 10.0 mi North 3.5 mph - N/A   Mostly Cloudy
10:53 AM 63.0 °F 45.0 °F 52% 30.22 in 10.0 mi NNW 6.9 mph - N/A   Scattered Clouds
11:53 AM 66.9 °F 44.1 °F 44% 30.18 in 10.0 mi NNE 6.9 mph - N/A   Scattered Clouds
12:53 PM 68.0 °F 42.1 °F 39% 30.14 in 10.0 mi NNE 4.6 mph - N/A   Partly Cloudy
1:53 PM 69.1 °F 42.1 °F 38% 30.10 in 10.0 mi NE 5.8 mph - N/A   Partly Cloudy
2:53 PM 71.1 °F 41.0 °F 34% 30.08 in 10.0 mi NE 4.6 mph - N/A   Scattered Clouds
3:53 PM 71.1 °F 43.0 °F 36% 30.08 in 10.0 mi SSE 6.9 mph - N/A   Mostly Cloudy
4:53 PM 71.1 °F 46.0 °F 41% 30.09 in 10.0 mi NNW 8.1 mph - N/A   Partly Cloudy
5:53 PM 66.9 °F 46.0 °F 47% 30.09 in 10.0 mi ENE 6.9 mph - N/A   Partly Cloudy
6:53 PM 63.0 °F 48.0 °F 58% 30.10 in 10.0 mi East 4.6 mph - N/A   Partly Cloudy
7:53 PM 63.0 °F 46.9 °F 56% 30.11 in 10.0 mi South 4.6 mph - N/A   Clear
8:53 PM 61.0 °F 48.9 °F 64% 30.12 in 10.0 mi Calm Calm - N/A   Clear
9:53 PM 59.0 °F 48.0 °F 67% 30.13 in 10.0 mi Calm Calm - N/A   Clear
10:53 PM 57.0 °F 48.0 °F 72% 30.13 in 10.0 mi Calm Calm - N/A   Partly Cloudy
11:53 PM 55.0 °F 48.0 °F 77% 30.12 in 10.0 mi Calm Calm - N/A   Partly Cloudy